Location: Cooper Lake State Park
(33.3431°N, 95.6813°W)
Time: 13:19:32
(UTC-06:00)

N. Korean satellite - Visible Passes

Search period start: 23 February 2019 00:00
Search period end: 05 March 2019 00:00
Orbit: 456 x 510 km, 97.2° (Epoch: 23 February)

Date Brightness Start Highest point End Pass type
(mag) Time Alt. Az. Time Alt. Az. Time Alt. Az.
23 Feb 10.4 18:56:41 10° WSW 18:58:12 12° W 18:59:44 10° WNW visible
24 Feb 6.8 06:25:07 10° NNE 06:28:33 71° ESE 06:31:56 10° S visible
25 Feb 8.8 06:00:44 10° NE 06:03:45 28° E 06:06:46 10° SSE visible
26 Feb 10.0 05:37:13 10° ENE 05:38:53 13° E 05:40:35 10° SE visible
27 Feb 10.2 18:50:37 10° SW 18:52:36 14° W 18:54:35 10° WNW visible
28 Feb 7.2 06:19:33 10° NNE 06:22:56 58° E 06:26:18 10° S visible
01 Mar 9.2 05:55:16 10° NE 05:58:07 24° E 06:00:58 10° SSE visible
02 Mar 10.2 05:32:13 10° ENE 05:33:14 11° E 05:34:15 10° ESE visible
03 Mar 10.1 18:44:38 10° SW 18:46:58 16° W 18:49:17 10° NW visible
04 Mar 7.7 06:13:56 10° NNE 06:17:16 47° E 06:20:37 10° S visible
